Regional Weather Roundup
Issued by NWS

Home | Current Version | Previous Version | Graphics & Text | Print | Product List | Glossary On
Versions: 1 2 3 4 5 6 7 8 9 10 11 12 13 14 15 16 17 18 19 20 21 22 23 24 25 26 27 28 29 30 31 32 33 34 35 36 37 38 39 40 41 42 43 44 45 46 47 48 49
000
ASUS45 KBOU 230707
RWRCO

WEATHER ROUNDUP FOR COLORADO
NATIONAL WEATHER SERVICE DENVER/BOULDER CO
100 AM MDT SUN APR 23 2017

NOTE: "FAIR" INDICATES FEW OR NO CLOUDS BELOW 12000 FEET WITH NO
SIGNIFICANT WEATHER AND/OR OBSTRUCTIONS TO VISIBILITY.

COZ001>005-013-030-031-230800-
...NORTHWEST COLORADO...

CITY           SKY/WX    TMP DP  RH WIND       PRES   REMARKS
CRAIG          FAIR      33  27  78 CALM      30.14R
HAYDEN         FAIR      36  19  51 SE8       30.14S
MEEKER         FAIR      37  25  61 VRB5      30.14S
MOUNT WERNER   NOT AVBL
STEAMBOAT SPGS FAIR      34  24  67 CALM      30.16R
WALDEN           N/A     30  23  74 SE8       30.18S WCI  23
$$

COZ006>008-011-230800-
...WEST CENTRAL VALLEYS...

CITY           SKY/WX    TMP DP  RH WIND       PRES   REMARKS
GRAND JUNCTION FAIR      48  21  34 E10       30.09R
MONTROSE       FAIR      42  18  37 SE9       30.16F
EAGLE          FAIR      34  24  67 CALM      30.20S
RIFLE          FAIR      41  27  57 CALM      30.14S
DELTA          FAIR      45  19  36 E5        30.14S
NUCLA          FAIR      43  18  36 E10       30.18F
$$

COZ017>023-064>068-230800-
...SOUTHWEST COLORADO...

CITY           SKY/WX    TMP DP  RH WIND       PRES   REMARKS
DURANGO        FAIR      37  20  50 CALM      30.20R
CORTEZ         FAIR      34  23  64 E5        30.16F WCI  30
PAGOSA SPRINGS FAIR      36  19  48 CALM      30.26R
TELLURIDE      FAIR      41  19  40 E9        30.27F
WOLF CREEK PAS FAIR      30  14  51 SW15G22   30.41S WCI  19
$$

COZ009-010-012-014-032>034-037-058>063-230800-
...CENTRAL COLORADO...

CITY           SKY/WX    TMP DP  RH WIND       PRES   REMARKS
ASPEN          FAIR      32  20  61 CALM      30.19S
BUENA VISTA    FAIR      30  24  78 CALM      30.26F
COPPER MTN     FAIR      34  10  37 MISG      30.31F
BERTHOUD PASS  FAIR      23  12  63 NW15G23   30.30F WCI  10
COTTONWOOD PAS FAIR      32  28  86 CALM      30.28F
GUNNISON       FAIR      33  21  61 N5        30.26R WCI  29
KREMMLING      FAIR      34  28  80 CALM      30.20S
LEADVILLE      FAIR      24  19  81 NE5       30.27F WCI  18
MONARCH PASS   FAIR      28  18  64 SW23      30.44F WCI  14
SALIDA         FAIR      36  27  71 S7        30.34F
SUNLIGHT       FAIR      28  19  69 SW16G24   30.31S WCI  17
WILKERSON PASS MOCLDY    23  21  93 SW16      30.31F WCI  10
$$

COZ069>075-230800-
...SAN LUIS VALLEY/SANGRE DE CRISTO MOUNTAINS...

CITY           SKY/WX    TMP DP  RH WIND       PRES   REMARKS
ALAMOSA        FAIR      32  25  75 CALM      30.24S
LA VETA PASS   FAIR      28  27  93 SW17G26   30.40F WCI  16
SAGUACHE       FAIR      30  18  59 N5        30.27S WCI  25
$$

COZ035-036-038>040-230800-
...NORTHERN COLORADO FRONT RANGE...

CITY           SKY/WX    TMP DP  RH WIND       PRES   REMARKS
DENVER INTL AP FAIR      44  32  62 S20       30.12F
DMNS CITY PARK   N/A     47  31  54 SE14      30.11F
AURORA         CLEAR     42  33  70 S21G29    30.13F
FRONT RANGE AP FAIR      43  34  70 S16       30.14F
ERIE MUNI ARPT FAIR      42  33  70 S3        30.11F
BOULDER MUN AP FAIR      43  30  61 SW6       30.11F
CENTENNIAL     FAIR      42  32  67 S15       30.14F
BROOMFIELD     FAIR      43  32  65 S6        30.12F
FORT COLLINS   FAIR      40  32  73 S7        30.12F
LONGMONT       FAIR      40  32  73 CALM      30.13F HAZE
$$

COZ041-046-047-076>085-087-088-230800-
...PIKES PEAK/PALMER DIVIDE AND SOUTHERN FOOTHILLS...

CITY           SKY/WX    TMP DP  RH WIND       PRES   REMARKS
COLO. SPRINGS  FAIR      39  31  72 S10       30.23F
A. F. ACADEMY  FAIR      36  30  78 S5        30.21F
SCHRIEVER AFB  FAIR      34  31  86 S7        30.25F WCI  28
ELLICOTT       FAIR     N/A N/A N/A S13       30.22F
FALCON         FAIR      35  31  88 S12       30.24F WCI  26
FORT CARSON    FAIR      41  32  69 S10       30.22F
LIMON          FAIR      37  34  89 S9        30.21F
MONUMENT HILL  FAIR      34  30  86 S16       30.21F WCI  23
TRINIDAD       FAIR      37  30  75 W12       30.25F
$$

COZ042>045-048>051-090-091-230800-
...NORTHEAST COLORADO...

CITY           SKY/WX    TMP DP  RH WIND       PRES   REMARKS
GREELEY ARPT   FAIR      38  34  85 NE6       30.13F
AKRON          FAIR      40  30  67 S13       30.17F
BURLINGTON     NOT AVBL
WRAY           NOT AVBL
STERLING       FAIR      36  32  87 SW8       30.15F
HOLYOKE        FAIR      41  34  75 S12       30.18F
FORT MORGAN    FAIR      39  32  76 S8        30.16F
$$

COZ086-089-092>099-230800-
...SOUTHEAST COLORADO...

CITY           SKY/WX    TMP DP  RH WIND       PRES   REMARKS
PUEBLO         FAIR      40  35  83 NE5       30.22F
LA JUNTA       FAIR      45  34  65 S7        30.23F
LAMAR          FAIR      38  33  82 SW7       30.23F
SPRINGFIELD      N/A     29  27  92 SW6       30.27F WCI  23
$$



USA.gov is the U.S. government's official web portal to all federal, state and local government web resources and services.